• In Czech Republic
  • List of Countries
  • For 7 days
  • Water Temperature
  • Satellite Maps
  • Weather Map
  • Weather Widgets
  • user-avatar
    Login

    Hourly Weather Salzburg

    Today, 17 November, Friday

    Time Temperature Precipitation Wind Pressure Humidity
    00:00 -4°C° 0 mm 1 mps 626 mmHg 92%
    01:00 -5°C° 0 mm 0 mps 626 mmHg 93%
    02:00 -4°C° 0 mm 1 mps 626 mmHg 93%
    03:00 -4°C° 0 mm 1 mps 626 mmHg 94%
    04:00 -4°C° 0 mm 1 mps 626 mmHg 94%
    05:00 -6°C° 0 mm 1 mps 626 mmHg 94%
    06:00 -6°C° 0 mm 1 mps 626 mmHg 94%
    07:00 -6°C° 0 mm 1 mps 626 mmHg 94%
    08:00 -4°C° 0 mm 1 mps 627 mmHg 91%
    09:00 -2°C° 0 mm 1 mps 627 mmHg 87%
    10:00 -1°C° 0 mm 1 mps 627 mmHg 84%
    11:00 -1°C° 0 mm 1 mps 627 mmHg 84%
    12:00 0°C° 0 mm 1 mps 627 mmHg 83%
    13:00 0°C° 0 mm 1 mps 627 mmHg 82%
    14:00 -1°C° 0 mm 1 mps 627 mmHg 85%
    15:00 -1°C° 0 mm 1 mps 627 mmHg 88%
    16:00 -2°C° 0 mm 1 mps 627 mmHg 90%
    17:00 -3°C° 0 mm 1 mps 626 mmHg 92%
    18:00 -4°C° 0 mm 1 mps 626 mmHg 93%
    19:00 -4°C° 0 mm 1 mps 626 mmHg 94%
    20:00 -6°C° 0 mm 1 mps 626 mmHg 94%
    21:00 -6°C° 0 mm 1 mps 626 mmHg 94%
    22:00 -7°C° 0 mm 1 mps 626 mmHg 94%
    23:00 -7°C° 0 mm 1 mps 626 mmHg 94%

    Tomorrow, 18 November, Saturday

    Time Temperature Precipitation Wind Pressure Humidity
    00:00 -7°C° 0 mm 1 mps 625 mmHg 94%
    01:00 -7°C° 0 mm 1 mps 625 mmHg 93%
    02:00 -7°C° 0 mm 1 mps 625 mmHg 93%
    03:00 -7°C° 0 mm 1 mps 625 mmHg 93%
    04:00 -7°C° 0 mm 1 mps 624 mmHg 93%
    05:00 -7°C° 0 mm 1 mps 624 mmHg 93%
    06:00 -7°C° 0 mm 1 mps 624 mmHg 92%
    07:00 -7°C° 0 mm 1 mps 625 mmHg 92%
    08:00 -6°C° 0 mm 1 mps 625 mmHg 89%
    09:00 -3°C° 0 mm 1 mps 625 mmHg 86%
    10:00 -2°C° 0 mm 1 mps 626 mmHg 84%
    11:00 -1°C° 0 mm 1 mps 626 mmHg 82%
    12:00 0°C° 0 mm 1 mps 626 mmHg 81%
    13:00 0°C° 0 mm 1 mps 625 mmHg 80%
    14:00 -1°C° 0 mm 1 mps 625 mmHg 84%
    15:00 -2°C° 0 mm 1 mps 624 mmHg 87%
    16:00 -3°C° 0 mm 1 mps 623 mmHg 91%
    17:00 -4°C° 0 mm 1 mps 623 mmHg 92%
    18:00 -6°C° 0 mm 1 mps 623 mmHg 92%
    19:00 -7°C° 0 mm 2 mps 623 mmHg 93%
    20:00 -8°C° 0 mm 2 mps 623 mmHg 92%
    21:00 -8°C° 0 mm 2 mps 623 mmHg 90%
    22:00 -8°C° 0 mm 2 mps 623 mmHg 89%
    23:00 -8°C° 0 mm 2 mps 623 mmHg 89%

    Day after tomorrow, 19 November, Sunday

    Time Temperature Precipitation Wind Pressure Humidity
    00:00 -8°C° 0 mm 2 mps 623 mmHg 90%
    01:00 -7°C° 0 mm 2 mps 623 mmHg 90%
    02:00 -7°C° 0 mm 2 mps 622 mmHg 90%
    03:00 -7°C° 0 mm 2 mps 622 mmHg 90%
    04:00 -7°C° 0 mm 2 mps 622 mmHg 90%
    05:00 -7°C° 0.5 mm 2 mps 622 mmHg 91%
    06:00 -7°C° 0.5 mm 2 mps 621 mmHg 92%
    07:00 -6°C° 0.5 mm 1 mps 621 mmHg 93%
    08:00 -6°C° 1 mm 2 mps 622 mmHg 93%
    09:00 -5°C° 1 mm 2 mps 622 mmHg 93%
    10:00 -5°C° 1 mm 2 mps 622 mmHg 93%
    11:00 -5°C° 1.2 mm 2 mps 622 mmHg 93%
    12:00 -5°C° 1.2 mm 2 mps 622 mmHg 93%
    13:00 -5°C° 1.2 mm 2 mps 622 mmHg 92%
    14:00 -5°C° 0.8 mm 2 mps 622 mmHg 93%
    15:00 -7°C° 0.8 mm 3 mps 622 mmHg 93%
    16:00 -7°C° 0.8 mm 3 mps 622 mmHg 94%
    17:00 -7°C° 0.6 mm 3 mps 623 mmHg 94%
    18:00 -8°C° 0.6 mm 3 mps 623 mmHg 94%
    19:00 -8°C° 0.6 mm 3 mps 623 mmHg 94%
    20:00 -8°C° 0.9 mm 3 mps 624 mmHg 94%
    21:00 -8°C° 0.9 mm 3 mps 624 mmHg 94%
    22:00 -8°C° 0.9 mm 3 mps 625 mmHg 95%
    23:00 -8°C° 0.7 mm 3 mps 625 mmHg 95%

    20 November, Monday

    Time Temperature Precipitation Wind Pressure Humidity
    00:00 -9°C° 0.7 mm 3 mps 625 mmHg 95%
    01:00 -9°C° 0.7 mm 3 mps 625 mmHg 95%
    02:00 -9°C° 0.3 mm 3 mps 625 mmHg 94%
    03:00 -10°C° 0.3 mm 3 mps 625 mmHg 93%
    04:00 -10°C° 0.3 mm 3 mps 625 mmHg 92%
    05:00 -10°C° 0.1 mm 3 mps 625 mmHg 91%
    06:00 -10°C° 0.1 mm 2 mps 625 mmHg 91%
    07:00 -10°C° 0.1 mm 2 mps 625 mmHg 90%
    08:00 -9°C° 0 mm 2 mps 625 mmHg 89%
    09:00 -7°C° 0 mm 2 mps 625 mmHg 87%
    10:00 -6°C° 0 mm 2 mps 626 mmHg 85%
    11:00 -5°C° 0 mm 2 mps 626 mmHg 85%
    12:00 -4°C° 0 mm 2 mps 626 mmHg 85%
    13:00 -1°C° 0 mm 1 mps 626 mmHg 85%
    14:00 -4°C° 0.5 mm 2 mps 625 mmHg 87%
    15:00 -4°C° 0.5 mm 2 mps 625 mmHg 89%
    16:00 -5°C° 0.5 mm 2 mps 624 mmHg 92%
    17:00 -5°C° 0.3 mm 2 mps 624 mmHg 92%
    18:00 -5°C° 0.3 mm 2 mps 624 mmHg 92%
    19:00 -5°C° 0.3 mm 2 mps 624 mmHg 93%
    20:00 -5°C° 0 mm 2 mps 624 mmHg 91%
    21:00 -5°C° 0 mm 2 mps 623 mmHg 89%
    22:00 -5°C° 0 mm 2 mps 623 mmHg 88%
    23:00 -5°C° 0.1 mm 2 mps 623 mmHg 87%

    21 November, Tuesday

    Time Temperature Precipitation Wind Pressure Humidity
    00:00 -5°C° 0.1 mm 2 mps 623 mmHg 87%
    01:00 -4°C° 0.1 mm 2 mps 623 mmHg 87%
    02:00 -4°C° 0.9 mm 2 mps 623 mmHg 89%
    03:00 -4°C° 0.9 mm 2 mps 623 mmHg 90%
    04:00 -3°C° 0.9 mm 2 mps 623 mmHg 92%
    05:00 -3°C° 0.9 mm 2 mps 623 mmHg 93%
    06:00 -3°C° 0.9 mm 2 mps 623 mmHg 94%
    07:00 -2°C° 0.9 mm 2 mps 623 mmHg 95%
    08:00 -2°C° 0.6 mm 2 mps 624 mmHg 95%
    09:00 -1°C° 0.6 mm 2 mps 624 mmHg 95%
    10:00 -1°C° 0.6 mm 2 mps 624 mmHg 95%
    11:00 -1°C° 0.3 mm 2 mps 624 mmHg 95%
    12:00 +1°C° 0.3 mm 2 mps 624 mmHg 95%
    13:00 +1°C° 0.3 mm 2 mps 624 mmHg 95%
    14:00 +1°C° 0.2 mm 2 mps 624 mmHg 95%
    15:00 -1°C° 0.2 mm 2 mps 624 mmHg 95%
    16:00 -1°C° 0.2 mm 2 mps 624 mmHg 96%
    17:00 -1°C° 0.1 mm 2 mps 624 mmHg 95%
    18:00 -1°C° 0.1 mm 2 mps 624 mmHg 94%
    19:00 -2°C° 0.1 mm 2 mps 625 mmHg 94%
    20:00 -2°C° 0.1 mm 2 mps 625 mmHg 93%
    21:00 -2°C° 0.1 mm 2 mps 625 mmHg 92%
    22:00 -2°C° 0.1 mm 2 mps 625 mmHg 91%
    23:00 -2°C° 0 mm 2 mps 625 mmHg 90%

    22 November, Wednesday

    Time Temperature Precipitation Wind Pressure Humidity
    00:00 -2°C° 0 mm 2 mps 624 mmHg 88%
    01:00 -2°C° 0 mm 2 mps 624 mmHg 87%
    02:00 -2°C° 0 mm 2 mps 624 mmHg 87%
    03:00 -3°C° 0 mm 2 mps 624 mmHg 86%
    04:00 -3°C° 0 mm 2 mps 624 mmHg 85%
    05:00 -3°C° 0 mm 2 mps 624 mmHg 85%
    06:00 -4°C° 0 mm 2 mps 624 mmHg 84%
    07:00 -4°C° 0 mm 2 mps 624 mmHg 84%
    08:00 0°C° 0 mm 1 mps 624 mmHg 86%
    09:00 +1°C° 0 mm 1 mps 625 mmHg 88%
    10:00 +2°C° 0 mm 1 mps 625 mmHg 90%
    11:00 +3°C° 0 mm 1 mps 625 mmHg 90%
    12:00 +4°C° 0 mm 1 mps 625 mmHg 91%
    13:00 +4°C° 0 mm 1 mps 625 mmHg 91%
    14:00 +3°C° 0 mm 1 mps 625 mmHg 91%
    15:00 +3°C° 0 mm 1 mps 624 mmHg 90%
    16:00 +2°C° 0 mm 1 mps 624 mmHg 90%
    17:00 +1°C° 0 mm 1 mps 624 mmHg 88%
    18:00 -2°C° 0 mm 2 mps 624 mmHg 86%
    19:00 -3°C° 0 mm 2 mps 624 mmHg 84%
    20:00 -3°C° 0 mm 2 mps 624 mmHg 83%
    21:00 -3°C° 0 mm 2 mps 624 mmHg 82%
    22:00 -3°C° 0 mm 2 mps 624 mmHg 81%
    23:00 -4°C° 0 mm 2 mps 624 mmHg 81%
    Show more